Location: Unspecified
(0.0000°N, 0.0000°E)
Time: 04:31:07
(UTC+00:00)

Tiros 6 - Visible Passes

Search period start: 23 February 2019 00:00
Search period end: 05 March 2019 00:00
Orbit: 592 x 614 km, 58.3° (Epoch: 22 February)

Date Brightness Start Highest point End Pass type
(mag) Time Alt. Az. Time Alt. Az. Time Alt. Az.
23 Feb 7.4 05:27:56 10° NW 05:32:03 44° WSW 05:36:19 10° SSE visible
24 Feb 9.1 04:03:57 22° ENE 04:03:59 22° ENE 04:07:27 10° ESE visible
24 Feb 8.6 05:40:54 10° WNW 05:43:59 19° WSW 05:47:06 10° SSW visible
25 Feb 7.9 04:16:46 46° ESE 04:16:46 46° ESE 04:20:13 10° SE visible
26 Feb 8.2 04:29:30 33° S 04:29:30 33° S 04:32:08 10° SSE visible
27 Feb 9.1 04:42:07 15° SSW 04:42:07 15° SSW 04:43:12 10° S visible
